Location: Unspecified
(0.0000°N, 0.0000°E)
Time: 13:33:25
(UTC+00:00)

Vanguard 3 - Visible Passes

Search period start: 01 August 2021 00:00
Search period end: 11 August 2021 00:00
Orbit: 508 x 3261 km, 33.4° (Epoch: 01 August)

Date Brightness Start Highest point End Pass type
(mag) Time Alt. Az. Time Alt. Az. Time Alt. Az.
01 Aug 9.4 04:44:12 14° SSW 04:44:12 14° SSW 04:46:00 10° S visible
01 Aug 11.3 20:22:50 10° NNW 20:34:25 18° N 20:46:05 10° NE visible
01 Aug 10.7 22:39:59 10° NNW 22:54:01 31° NNE 22:54:01 31° NNE visible
02 Aug 11.3 00:56:30 10° NW 00:58:29 14° NW 00:58:29 14° NW visible
02 Aug 10.0 03:34:37 10° SSE 03:34:37 10° SSE 03:34:38 10° SSE visible
02 Aug 11.5 19:04:55 10° NW 19:14:32 17° N 19:25:21 10° NE visible
02 Aug 10.9 21:23:01 10° NNW 21:37:32 24° NNE 21:43:06 21° NE visible
02 Aug 10.8 23:39:02 10° NW 23:47:33 29° NNW 23:47:33 29° NNW visible
03 Aug 11.3 20:06:12 10° NNW 20:18:02 19° NNE 20:30:12 10° NE visible
03 Aug 10.6 22:22:04 10° NW 22:36:41 35° N 22:36:41 35° N visible
04 Aug 11.3 00:38:31 10° NW 00:41:09 16° NW 00:41:09 16° NW visible
04 Aug 11.4 18:49:19 10° NNW 18:58:19 16° N 19:08:30 10° NE visible
04 Aug 10.8 21:05:33 10° NNW 21:20:48 27° NNE 21:25:51 24° NE visible
04 Aug 10.8 23:21:01 10° NW 23:30:20 33° NNW 23:30:20 33° NNW visible
05 Aug 11.2 19:49:25 10° NNW 20:01:32 20° NNE 20:14:19 10° ENE visible
05 Aug 10.5 22:04:14 10° NW 22:19:33 40° NNE 22:19:33 40° NNE visible
06 Aug 11.2 00:20:37 10° NW 00:24:02 18° NW 00:24:02 18° NW visible
06 Aug 11.4 18:33:35 10° NNW 18:42:06 15° N 18:51:50 10° NE visible
06 Aug 10.7 20:48:07 10° NNW 21:03:54 30° NNE 21:08:50 27° NE visible
06 Aug 10.7 23:03:08 10° NW 23:13:19 37° NNW 23:13:19 37° NNW visible
07 Aug 11.1 19:32:35 10° NNW 19:44:57 21° NNE 19:58:10 10° ENE visible
07 Aug 10.4 21:46:32 10° NW 22:02:39 45° NNE 22:02:39 45° NNE visible
08 Aug 11.2 00:02:51 10° WNW 00:07:08 20° WNW 00:07:08 20° WNW visible
08 Aug 11.3 18:17:38 10° NNW 18:25:50 15° NNE 18:35:20 10° NE visible
08 Aug 10.6 20:30:45 10° NNW 20:46:52 33° NNE 20:52:02 30° NE visible
08 Aug 10.6 22:45:22 10° NW 22:56:32 42° NW 22:56:32 42° NW visible
09 Aug 11.0 19:15:43 10° NNW 19:28:14 23° NNE 19:41:29 11° ENE visible
09 Aug 10.2 21:28:57 10° NW 21:45:59 51° NNE 21:45:59 51° NNE visible
09 Aug 11.1 23:45:12 10° WNW 23:50:29 23° WNW 23:50:29 23° WNW visible
10 Aug 10.5 20:13:27 10° NNW 20:29:41 37° NNE 20:35:29 32° ENE visible
10 Aug 10.4 22:27:45 10° NW 22:40:00 48° NW 22:40:00 48° NW visible
